Flag for Kazakhstan Weather past 2 weeks in Shymkent, Kazakhstan

Now
9 °F

Ice fog.


Feels Like: 9 °F
Forecast: -1 / 20 °F
Wind: 1 mph from Southwest

Location: Shymkent Airport

Current Time: Jan 26, 2015 at 2:40:50 AM

Latest Report: Jan 26, 2015 at 2:00 AM


Visibility: 0 mi

Pressure: 30.54 "Hg

Humidity: 85%

Dew point: 5 °F

Location of ShymkentLocation

Historic Weather in Shymkent — Graph

°F

Shymkent temperature yesterday

Maximum temperature yesterday: 18 °F (at 2:30 PM)
Minimum temperature yesterday: 3 °F (at 9:30 PM)
Average temperature yesterday: 13 °F

Past Weeks' High & Low Weather Summary

 TemperatureHumidityPressure
High57 °F (Jan 17, 3:30 PM)100% (Jan 11, 1:00 AM)30.63 "Hg (Jan 11, 1:00 AM)
Low3 °F (Jan 25, 9:30 PM)34% (Jan 16, 1:30 PM)29.98 "Hg (Jan 11, 7:00 AM)
Average28 °F91%30.30 "Hg
* Reported Jan 11 1:00 AM — Jan 26 1:30 AM, Shymkent, Weather by CustomWeather, © 2014

Note: Actual official high and low records may vary slightly from our data, if they occured in-between our weather recording intervals... More about our weather records

Advertising

Shymkent weather history for previous 24 hours

 ConditionsComfort  
Time TempWeatherWind HumidityBarometerVisibility
1:30 AM
Jan 26
9 °FIce fog.No wind85%30.54 "Hg0 mi
1:00 AM7 °FIce fog.No wind85%30.54 "Hg0 mi
12:30 AM7 °FIce fog.No wind85%30.54 "Hg0 mi
12:00 AM7 °FIce fog.No wind85%30.54 "Hg0 mi
11:30 PM
Jan 25
5 °FIce fog.No wind92%30.57 "Hg0 mi
11:00 PM9 °FIce fog.1 mph85%30.57 "Hg0 mi
10:30 PM7 °FIce fog.1 mph85%30.57 "Hg0 mi
10:00 PM5 °FIce fog.No wind85%30.57 "Hg0 mi
9:30 PM3 °FIce fog.1 mph85%30.57 "Hg0 mi
9:00 PM7 °FIce fog.No wind85%30.57 "Hg0 mi
8:30 PM9 °FIce fog.1 mph85%30.57 "Hg0 mi
8:00 PM9 °FIce fog.1 mph92%30.57 "Hg1 mi
7:30 PM10 °FIce fog.1 mph85%30.57 "Hg1 mi
7:00 PM14 °FIce fog.No wind85%30.57 "Hg2 mi
6:30 PM14 °FIce fog.No wind85%30.57 "Hg2 mi
6:00 PM14 °FIce fog.3 mph92%30.57 "Hg3 mi
5:30 PM16 °FIce fog.3 mph86%30.57 "Hg3 mi
5:00 PM18 °FIce fog.3 mph86%30.60 "Hg2 mi
4:30 PM18 °FIce fog.3 mph93%30.60 "Hg2 mi
4:00 PM18 °FIce fog.1 mph93%30.60 "Hg2 mi
3:30 PM18 °FIce fog.1 mph93%30.60 "Hg2 mi
3:00 PM16 °FIce fog.3 mph93%30.60 "Hg2 mi
2:30 PM18 °FIce fog.3 mph93%30.60 "Hg2 mi
2:00 PM16 °FIce fog.1 mph93%30.60 "Hg2 mi
1:30 PM16 °FIce fog.1 mph93%30.60 "Hg1 mi
1:00 PM14 °FIce fog.1 mph92%30.60 "Hg1 mi
12:30 PM14 °FIce fog.1 mph92%30.63 "Hg1 mi
12:00 PM14 °FIce fog.No wind85%30.63 "Hg1 mi
11:30 AM12 °FIce fog.No wind92%30.63 "Hg0 mi
11:00 AM10 °FIce fog.No wind92%30.60 "Hg0 mi
10:30 AM10 °FIce fog.1 mph92%30.60 "Hg0 mi
10:00 AM10 °FIce fog.1 mph92%30.60 "Hg0 mi
9:30 AM12 °FIce fog.1 mph85%30.60 "Hg0 mi
8:30 AM12 °FIce fog.1 mph92%30.60 "Hg0 mi
8:00 AM12 °FIce fog.1 mph92%30.60 "Hg0 mi
7:30 AM14 °FLight snow. Ice fog.1 mph85%30.60 "Hg1 mi
7:00 AM14 °FLight snow. Ice fog.No wind85%30.60 "Hg1 mi
6:30 AM14 °FLight snow. Ice fog.No wind92%30.60 "Hg1 mi
6:00 AM14 °FLight snow. Ice fog.1 mph85%30.60 "Hg1 mi
5:30 AM14 °FLight snow. Ice fog.1 mph92%30.60 "Hg2 mi
5:00 AM14 °FLight snow. Ice fog.1 mph92%30.60 "Hg2 mi
4:30 AM14 °FLight snow. Ice fog.1 mph92%30.60 "Hg2 mi
4:00 AM14 °FMostly cloudy.3 mph85%30.60 "Hg4 mi
3:30 AM12 °FMostly cloudy.1 mph92%30.60 "Hg5 mi
3:00 AM12 °FMostly cloudy.No wind92%30.57 "Hg5 mi
2:30 AM12 °FMostly cloudy.No wind92%30.57 "Hg5 mi
2:00 AM12 °FMostly cloudy.1 mph92%30.57 "Hg5 mi
Weather by CustomWeather, © 2014

See weather overviewHow to use our weather pages